[[{"header":{"parameterUnit":"m.s-1","parameterCategory":2,"la1":30.2991,"la2":30.254,"lo1":-89.0895,"lo2":-89.0444,"dy":0.0017,"dx":0.0017,"nx":28,"ny":28,"refTime":"2024-07-01T03:00:00:Z","depth":"0","parameterNumber":2,"parameterNumberName":"U-component_of_CURRENTS"},"data":[0,0,0,0,0,0,0,0,0,0,0,0,0,0,0,0,0,0,0,0,0,0,0,0,0,0,0,0,0,0,0,0,0,0,0,0,0,0,0,0,0,0,0,0,0,0,0,0,0,0,0,0,0,0,0,0,0,0,-0.3172,-0.3172,0,-0.3224,-0.3224,-0.3225,-0.322,-0.322,-0.3219,-0.3219,-0.332,-0.3323,-0.3326,0,0,0,0,0,0,0,0,0,0,0,0,0,-0.3067,-0.3069,-0.3171,-0.3172,-0.3173,-0.3224,-0.3224,-0.3225,-0.322,-0.3219,-0.3219,-0.3218,-0.3319,-0.3323,-0.3327,0,0,0,0,0,0,0,0,0,0,0,0,0,-0.3112,-0.307,-0.3171,-0.318,-0.3181,-0.3224,-0.3224,-0.3225,-0.322,-0.3219,-0.3219,-0.3218,-0.3318,-0.3322,-0.3327,-0.3372,0,0,-0.3342,-0.3344,0,0,0,0,0,0,0,0,-0.311,-0.3116,-0.3177,-0.3179,-0.3181,-0.3218,-0.3225,-0.3278,-0.322,-0.3202,-0.3219,-0.3218,-0.3293,-0.33,-0.3306,-0.3376,-0.3381,-0.3342,-0.3345,-0.3347,-0.3348,0,0,0,0,0,0,0,-0.3107,-0.3114,-0.3189,-0.3179,-0.3181,-0.3181,-0.3186,-0.3235,-0.3249,-0.3203,-0.3204,-0.3215,-0.3294,-0.3301,-0.3309,-0.3382,-0.3342,-0.3346,-0.3349,-0.3351,-0.346,-0.346,0,0,0,0,0,0,-0.3108,-0.3111,-0.3187,-0.3191,-0.3147,-0.3184,-0.319,-0.3204,-0.3248,-0.3254,-0.3216,-0.3215,-0.3294,-0.3303,-0.3312,-0.3338,-0.3347,-0.3351,-0.3354,-0.346,-0.346,-0.346,0,0,0,0,0,0,-0.3106,-0.3115,-0.3185,-0.3154,-0.3164,-0.3187,-0.3203,-0.3205,-0.3209,-0.3258,-0.3264,-0.3216,-0.3293,-0.3306,-0.3356,-0.3343,-0.3354,-0.3358,-0.3459,-0.346,-0.346,-0.3409,0,0,0,0,0,0,-0.3103,-0.3113,-0.3116,-0.3155,-0.3166,-0.3208,-0.3204,-0.3207,-0.3219,-0.3218,-0.3261,-0.3269,-0.3294,-0.3349,-0.3361,-0.335,-0.3362,-0.3459,-0.3459,-0.346,-0.3411,-0.3407,-0.3404,0,0,0,0,0,-0.3099,-0.31,-0.3116,-0.3125,-0.3171,-0.3209,-0.3214,-0.3225,-0.322,-0.3224,-0.3255,-0.3268,-0.3356,-0.3354,-0.3367,-0.3357,-0.3459,-0.3459,-0.346,-0.3412,-0.3408,-0.3404,0,0,0,0,0,0,-0.304,-0.3102,-0.3119,-0.3135,-0.3172,-0.3209,-0.3208,-0.3225,-0.3251,-0.3249,-0.3285,-0.3297,-0.3331,-0.3359,-0.3354,-0.3388,-0.3404,-0.3407,-0.3363,-0.3359,-0.3356,-0.3336,-0.3366,0,0,0,0,0,-0.3036,-0.3056,-0.3115,-0.3123,-0.3142,-0.3177,-0.319,-0.3209,-0.3242,-0.325,-0.3282,-0.3314,-0.3344,-0.3363,-0.3399,-0.3432,-0.342,-0.3429,-0.3426,-0.3423,-0.3416,-0.3453,-0.3453,-0.346,-0.346,-0.346,0,0,-0.3009,-0.3049,-0.3055,-0.3113,-0.3135,-0.3171,-0.318,-0.3205,-0.3227,-0.3262,-0.3289,-0.3314,-0.3352,-0.3379,-0.3395,-0.3399,-0.3393,-0.3423,-0.342,-0.3415,-0.3453,-0.3453,-0.3452,-0.346,-0.346,-0.346,0,0,-0.2979,-0.3008,-0.3024,-0.3066,-0.3121,-0.3151,-0.3161,-0.321,-0.3219,-0.3268,-0.328,-0.3298,-0.3362,-0.3369,-0.3385,-0.3391,-0.3381,-0.3397,-0.3364,-0.34,-0.3399,-0.3399,-0.3283,-0.3273,-0.3391,-0.3391,-0.3391,0,-0.2944,-0.2981,-0.3029,-0.3069,-0.3093,-0.3144,-0.3168,-0.3198,-0.3254,-0.3259,-0.3274,-0.3327,-0.3354,-0.3367,-0.3354,-0.3382,-0.3357,-0.3372,-0.3395,-0.3395,-0.3396,-0.3278,-0.3268,-0.3388,-0.3389,-0.3389,-0.3389,0,-0.2944,-0.2976,-0.2984,-0.3055,-0.309,-0.3114,-0.3178,-0.3202,-0.3225,-0.3252,-0.3275,-0.331,-0.3332,-0.3336,-0.3348,-0.3351,-0.3308,-0.3389,-0.34,-0.3392,-0.3267,-0.3257,-0.3385,-0.3386,-0.3387,-0.3387,0,0,-0.2843,-0.2961,-0.2961,-0.2992,-0.3084,-0.3105,-0.315,-0.3191,-0.3201,-0.3249,-0.3254,-0.3282,-0.3284,-0.33,-0.3308,-0.3327,-0.3267,-0.3348,-0.3351,-0.322,-0.3234,-0.3065,-0.3037,-0.337,-0.3371,-0.3371,-0.3106,0,-0.2818,-0.2879,-0.2948,-0.2986,-0.3016,-0.3087,-0.3121,-0.3169,-0.3205,-0.323,-0.3252,-0.327,-0.3277,-0.3274,-0.3293,-0.3321,-0.3257,-0.3323,-0.3272,-0.3266,-0.3114,-0.3029,-0.2914,-0.2661,-0.3097,-0.3095,-0.3094,0,-0.2783,-0.2833,-0.287,-0.2953,-0.2969,-0.3001,-0.3045,-0.3089,-0.3148,-0.3174,-0.3197,-0.3229,-0.3233,-0.3261,-0.3242,-0.3291,-0.3224,-0.3222,-0.3214,-0.3078,-0.3085,-0.2763,-0.2627,-0.2507,-0.3079,-0.3081,-0.3082,0,-0.2668,-0.2764,-0.2783,-0.2816,-0.2927,-0.2937,-0.2983,-0.3051,-0.3081,-0.3129,-0.3154,-0.3183,-0.3196,-0.3195,-0.3151,-0.3213,-0.3106,-0.3206,-0.2944,-0.2926,-0.2825,-0.2798,-0.2567,-0.3128,-0.3129,-0.3129,-0.313,0,-0.2602,-0.2611,-0.273,-0.274,-0.2756,-0.2855,-0.2869,-0.2925,-0.3,-0.3041,-0.3102,-0.3132,-0.32,-0.3157,-0.3116,-0.2959,-0.3062,-0.2882,-0.2862,-0.2789,-0.2764,-0.2658,-0.27,-0.3119,-0.3121,-0.3123,-0.3125,0,-0.2465,-0.2548,-0.2574,-0.2676,-0.2704,-0.2708,-0.2809,-0.2835,-0.2912,-0.2971,-0.2987,-0.3082,-0.3027,-0.2975,-0.2939,-0.2878,-0.2688,-0.2661,-0.2477,-0.2441,-0.2134,-0.2181,-0.2037,-0.1982,-0.2356,-0.2351,-0.2346,0,-0.2398,-0.2399,-0.2498,-0.2523,-0.2564,-0.2604,-0.2648,-0.2761,-0.2816,-0.2946,-0.2976,-0.2938,-0.291,-0.2714,-0.2572,-0.2347,-0.2388,-0.2114,-0.2233,-0.2033,-0.2073,-0.2188,-0.2165,-0.2025,-0.2018,-0.2012,-0.2008,0,-0.2257,-0.2292,-0.2323,-0.2389,-0.2434,-0.2492,-0.2573,-0.2613,-0.2767,-0.2821,-0.2898,-0.2882,-0.2673,-0.2436,-0.211,-0.2007,-0.206,-0.1989,-0.1892,-0.1852,-0.1861,-0.1825,-0.2184,-0.1957,-0.1963,-0.1966,-0.1969,-0.1971,-0.2129,-0.2126,-0.2188,-0.2233,-0.2305,-0.2377,-0.2387,-0.2516,-0.2586,-0.2671,-0.2751,-0.265,-0.2376,-0.1931,-0.1763,-0.1391,-0.1622,-0.1361,-0.1431,-0.156,-0.1527,-0.1675,-0.1392,-0.1393,-0.1395,-0.1396,-0.1397,0,-0.1972,-0.2002,-0.2041,-0.2104,-0.2138,-0.2227,-0.2335,-0.2351,-0.2415,-0.2462,-0.248,-0.2149,-0.1799,-0.1493,-0.1047,-0.0882,-0.096,-0.0842,-0.1005,-0.1012,-0.1189,-0.1191,-0.072,-0.072,-0.072,-0.072,-0.072,-0.072,-0.1889,-0.1874,-0.1913,-0.1919,-0.1972,-0.1983,-0.2021,-0.2088,-0.2106,-0.1989,-0.1812,-0.1686,-0.1291,-0.0941,-0.0581,-0.0548,-0.0572,-0.0571,-0.062,-0.0748,-0.0804,-0.0858,-0.0863,-0.033,-0.033,-0.0421,-0.0422,-0.0422]},{"header":{"parameterUnit":"m.s-1","parameterCategory":2,"la1":30.2991,"la2":30.254,"lo1":-89.0895,"lo2":-89.0444,"dy":0.0017,"dx":0.0017,"nx":28,"ny":28,"refTime":"2024-07-01T03:00:00:Z","depth":"0","parameterNumber":3,"parameterNumberName":"V-component_of_CURRENTS"},"data":[0,0,0,0,0,0,0,0,0,0,0,0,0,0,0,0,0,0,0,0,0,0,0,0,0,0,0,0,0,0,0,0,0,0,0,0,0,0,0,0,0,0,0,0,0,0,0,0,0,0,0,0,0,0,0,0,0,0,-0.1443,-0.1444,0,-0.1496,-0.1496,-0.1497,-0.1449,-0.1447,-0.1445,-0.1443,-0.1434,-0.1435,-0.1437,0,0,0,0,0,0,0,0,0,0,0,0,0,-0.1262,-0.1266,-0.1443,-0.1444,-0.1445,-0.1496,-0.1496,-0.1497,-0.1449,-0.1447,-0.1445,-0.1443,-0.1434,-0.1435,-0.1437,0,0,0,0,0,0,0,0,0,0,0,0,0,-0.1328,-0.1267,-0.1443,-0.1429,-0.1428,-0.1496,-0.1496,-0.1497,-0.1449,-0.1447,-0.1444,-0.1442,-0.1433,-0.1435,-0.1437,-0.1502,0,0,-0.1443,-0.1444,0,0,0,0,0,0,0,0,-0.1325,-0.1335,-0.143,-0.143,-0.1429,-0.1465,-0.1429,-0.1496,-0.145,-0.1439,-0.1443,-0.144,-0.1442,-0.1443,-0.1457,-0.1502,-0.1501,-0.1444,-0.1445,-0.1446,-0.1446,0,0,0,0,0,0,0,-0.132,-0.1332,-0.1462,-0.1431,-0.1431,-0.1406,-0.1413,-0.1441,-0.1452,-0.144,-0.1437,-0.1447,-0.1441,-0.1455,-0.1456,-0.1501,-0.1443,-0.1445,-0.1447,-0.1447,-0.1595,-0.1598,0,0,0,0,0,0,-0.1324,-0.1329,-0.146,-0.1463,-0.1372,-0.1412,-0.1419,-0.1454,-0.1453,-0.1451,-0.1449,-0.1445,-0.1453,-0.1454,-0.1455,-0.1519,-0.1446,-0.1448,-0.1449,-0.1592,-0.1596,-0.1598,0,0,0,0,0,0,-0.1321,-0.1337,-0.1458,-0.1397,-0.1411,-0.1419,-0.1458,-0.1457,-0.1463,-0.1461,-0.1457,-0.1455,-0.1451,-0.1452,-0.1498,-0.1519,-0.1448,-0.145,-0.1589,-0.1593,-0.1597,-0.1656,0,0,0,0,0,0,-0.1316,-0.1336,-0.136,-0.1398,-0.1415,-0.1498,-0.1461,-0.146,-0.1475,-0.1469,-0.1466,-0.1462,-0.1449,-0.1495,-0.15,-0.152,-0.1452,-0.1586,-0.1591,-0.1596,-0.165,-0.1661,-0.167,0,0,0,0,0,-0.1309,-0.1356,-0.1362,-0.1377,-0.145,-0.15,-0.1506,-0.15,-0.1478,-0.1493,-0.1502,-0.1462,-0.1529,-0.15,-0.1505,-0.1526,-0.1583,-0.159,-0.1595,-0.1646,-0.1659,-0.167,0,0,0,0,0,0,-0.1282,-0.1357,-0.1364,-0.1428,-0.1461,-0.1492,-0.1512,-0.1509,-0.153,-0.1522,-0.1508,-0.1508,-0.1556,-0.1547,-0.1515,-0.1587,-0.1546,-0.1554,-0.1583,-0.1595,-0.1605,-0.1614,-0.1454,0,0,0,0,0,-0.1294,-0.1351,-0.1403,-0.1451,-0.1474,-0.1495,-0.1513,-0.1513,-0.1538,-0.1543,-0.1544,-0.1556,-0.1591,-0.1595,-0.1623,-0.1667,-0.1625,-0.1683,-0.1693,-0.1702,-0.1715,-0.1689,-0.1697,-0.1618,-0.1618,-0.1618,0,0,-0.1292,-0.1344,-0.1372,-0.1449,-0.1475,-0.1522,-0.1499,-0.1535,-0.1569,-0.1543,-0.1586,-0.1599,-0.1617,-0.1667,-0.1685,-0.1654,-0.1697,-0.1709,-0.1716,-0.1725,-0.1696,-0.1703,-0.171,-0.1622,-0.1622,-0.1621,0,0,-0.1322,-0.1371,-0.1425,-0.1464,-0.1517,-0.154,-0.1553,-0.1592,-0.1602,-0.1657,-0.1652,-0.1692,-0.1722,-0.175,-0.1766,-0.1857,-0.1762,-0.1844,-0.1887,-0.1862,-0.1867,-0.1871,-0.1794,-0.179,-0.1835,-0.1836,-0.1836,0,-0.1309,-0.14,-0.1442,-0.1501,-0.1539,-0.1551,-0.1605,-0.1632,-0.1675,-0.1707,-0.1673,-0.176,-0.1771,-0.1849,-0.1873,-0.1879,-0.1816,-0.1832,-0.1871,-0.1874,-0.1877,-0.1797,-0.1793,-0.1839,-0.1839,-0.1838,-0.1838,0,-0.1384,-0.1447,-0.1483,-0.157,-0.1611,-0.1661,-0.1708,-0.1745,-0.1756,-0.1781,-0.1853,-0.1875,-0.192,-0.1928,-0.1926,-0.1969,-0.1899,-0.1891,-0.1828,-0.1888,-0.18,-0.1794,-0.1844,-0.1843,-0.1842,-0.1841,0,0,-0.1378,-0.1509,-0.1521,-0.1573,-0.1654,-0.17,-0.1769,-0.1848,-0.1894,-0.1921,-0.1976,-0.2047,-0.2039,-0.206,-0.2056,-0.2033,-0.1997,-0.1961,-0.1958,-0.1863,-0.1877,-0.1833,-0.1821,-0.1966,-0.1967,-0.1967,-0.1792,0,-0.142,-0.1541,-0.1597,-0.1696,-0.1762,-0.1807,-0.1873,-0.1938,-0.1976,-0.2027,-0.2058,-0.2105,-0.2092,-0.2099,-0.2088,-0.2024,-0.1989,-0.2042,-0.1853,-0.1847,-0.1785,-0.1818,-0.1732,-0.157,-0.1786,-0.1785,-0.1784,0,-0.1477,-0.1559,-0.1665,-0.1783,-0.1815,-0.1867,-0.1977,-0.2036,-0.2113,-0.2136,-0.2182,-0.2184,-0.2199,-0.216,-0.2073,-0.2088,-0.1999,-0.1933,-0.1924,-0.1865,-0.1796,-0.1556,-0.155,-0.1302,-0.1774,-0.1775,-0.1776,0,-0.1469,-0.1605,-0.1694,-0.1735,-0.1863,-0.1917,-0.1978,-0.207,-0.2126,-0.2192,-0.2208,-0.2232,-0.2204,-0.2134,-0.2009,-0.2023,-0.1859,-0.1866,-0.1746,-0.1738,-0.1625,-0.1608,-0.1347,-0.1808,-0.1809,-0.1809,-0.181,0,-0.1505,-0.1572,-0.1698,-0.1748,-0.1853,-0.1929,-0.2029,-0.2093,-0.2169,-0.2224,-0.2251,-0.2254,-0.2186,-0.2092,-0.1999,-0.1833,-0.1848,-0.1757,-0.1706,-0.1641,-0.1629,-0.1378,-0.1246,-0.1803,-0.1804,-0.1805,-0.1806,0,-0.1475,-0.1562,-0.1667,-0.1806,-0.1853,-0.1921,-0.2049,-0.2124,-0.2174,-0.2233,-0.2245,-0.2231,-0.2092,-0.1998,-0.1838,-0.1793,-0.1506,-0.1601,-0.1506,-0.1451,-0.1166,-0.1043,-0.0805,-0.0667,-0.1464,-0.1462,-0.146,0,-0.1468,-0.1522,-0.1684,-0.1758,-0.1821,-0.1932,-0.2021,-0.2118,-0.2187,-0.2209,-0.223,-0.2116,-0.2047,-0.1797,-0.1654,-0.1475,-0.1326,-0.1327,-0.1397,-0.1135,-0.0958,-0.0939,-0.0838,-0.1234,-0.1231,-0.1229,-0.1226,0,-0.1441,-0.1496,-0.1584,-0.1742,-0.185,-0.1974,-0.2091,-0.2139,-0.223,-0.2243,-0.2195,-0.2125,-0.1878,-0.1668,-0.1455,-0.133,-0.1118,-0.127,-0.1021,-0.0784,-0.0721,-0.0567,-0.1324,-0.1202,-0.1205,-0.1207,-0.1208,-0.1209,-0.1393,-0.1452,-0.158,-0.1724,-0.1859,-0.1997,-0.207,-0.2157,-0.2215,-0.2215,-0.2148,-0.1978,-0.1737,-0.1421,-0.1234,-0.0815,-0.0881,-0.0728,-0.0599,-0.0607,-0.0482,-0.118,-0.1007,-0.1008,-0.1009,-0.101,-0.1011,0,-0.1342,-0.1437,-0.1567,-0.1748,-0.1885,-0.1969,-0.2113,-0.215,-0.2175,-0.2112,-0.2039,-0.1663,-0.138,-0.1037,-0.0561,-0.0228,-0.0159,-0.0023,0.0069,0.0136,-0.0477,-0.0476,-0.0153,-0.0153,-0.0153,-0.0154,-0.0154,-0.0154,-0.132,-0.1425,-0.1518,-0.1728,-0.1856,-0.2,-0.2066,-0.2078,-0.2035,-0.1803,-0.1539,-0.1306,-0.0712,-0.0199,0.0379,0.0473,0.0754,0.0763,0.0887,0.0531,0.0475,0.0422,0.0454,0.0966,0.0967,0.1447,0.1453,0.1458]}],[{"header":{"parameterUnit":"m.s-1","parameterCategory":2,"la1":30.2991,"la2":30.254,"lo1":-89.0895,"lo2":-89.0444,"dy":0.0017,"dx":0.0017,"nx":28,"ny":28,"refTime":"2024-07-01T03:00:00:Z","depth":"2","parameterNumber":2,"parameterNumberName":"U-component_of_CURRENTS"},"data":[0,0,0,0,0,0,0,0,0,0,0,0,0,0,0,0,0,0,0,0,0,0,0,0,0,0,0,0,0,0,0,0,0,0,0,0,0,0,0,0,0,0,0,0,0,0,0,0,0,0,0,0,0,0,0,0,0,0,-0.2658,-0.2658,0,-0.2637,-0.2637,-0.2636,-0.2619,-0.2619,-0.2619,-0.2619,-0.2495,-0.2491,-0.2488,0,0,0,0,0,0,0,0,0,0,0,0,0,-0.2623,-0.2624,-0.2658,-0.2658,-0.2658,-0.2637,-0.2637,-0.2636,-0.2619,-0.2619,-0.2619,-0.2619,-0.2496,-0.2492,-0.2488,0,0,0,0,0,0,0,0,0,0,0,0,0,-0.2622,-0.2624,-0.2658,-0.2649,-0.2648,-0.2637,-0.2637,-0.2636,-0.2619,-0.2619,-0.2619,-0.2619,-0.2497,-0.2492,-0.2487,-0.2455,0,0,-0.2472,-0.247,0,0,0,0,0,0,0,0,-0.2622,-0.2623,-0.265,-0.2649,-0.2648,-0.2633,-0.2579,-0.2571,-0.2619,-0.2628,-0.2619,-0.2619,-0.2533,-0.2525,-0.2519,-0.2449,-0.2444,-0.2471,-0.2468,-0.2466,-0.2465,0,0,0,0,0,0,0,-0.2622,-0.2623,-0.2647,-0.265,-0.2649,-0.2625,-0.2625,-0.2577,-0.2576,-0.2627,-0.2626,-0.2628,-0.2531,-0.2524,-0.2515,-0.2442,-0.2471,-0.2467,-0.2464,-0.2462,-0.2282,-0.228,0,0,0,0,0,0,-0.2633,-0.2624,-0.2648,-0.2647,-0.2638,-0.2626,-0.2626,-0.2636,-0.2579,-0.2572,-0.2628,-0.2627,-0.2532,-0.2521,-0.2511,-0.2424,-0.2466,-0.2461,-0.2459,-0.2284,-0.2282,-0.228,0,0,0,0,0,0,-0.2632,-0.2636,-0.2649,-0.2636,-0.2637,-0.2627,-0.2638,-0.2636,-0.2619,-0.2581,-0.2572,-0.2612,-0.2532,-0.2518,-0.2447,-0.2421,-0.2459,-0.2455,-0.2286,-0.2283,-0.2281,-0.2278,0,0,0,0,0,0,-0.2632,-0.2636,-0.2642,-0.2637,-0.2638,-0.2634,-0.2638,-0.2635,-0.2621,-0.262,-0.2565,-0.2554,-0.2531,-0.2454,-0.2442,-0.2414,-0.2451,-0.2288,-0.2285,-0.2281,-0.2281,-0.2276,-0.2272,0,0,0,0,0,-0.263,-0.2635,-0.2642,-0.2645,-0.2649,-0.2634,-0.263,-0.2622,-0.262,-0.2608,-0.2563,-0.2556,-0.2425,-0.2448,-0.2434,-0.2405,-0.229,-0.2286,-0.2282,-0.2283,-0.2277,-0.2272,0,0,0,0,0,0,-0.2632,-0.2634,-0.2642,-0.265,-0.2641,-0.2631,-0.2619,-0.2616,-0.2573,-0.2564,-0.2529,-0.2514,-0.244,-0.2419,-0.2446,-0.2342,-0.2357,-0.235,-0.2362,-0.2357,-0.2352,-0.2367,-0.2446,0,0,0,0,0,-0.2636,-0.263,-0.2635,-0.2638,-0.2634,-0.2625,-0.2617,-0.2611,-0.2579,-0.2562,-0.2518,-0.2467,-0.2414,-0.2384,-0.2332,-0.2275,-0.2272,-0.2246,-0.2242,-0.2238,-0.2239,-0.2253,-0.2252,-0.2267,-0.2267,-0.2267,0,0,-0.2637,-0.2637,-0.2636,-0.2636,-0.2627,-0.2616,-0.2619,-0.26,-0.258,-0.2551,-0.2489,-0.2443,-0.2393,-0.2327,-0.2293,-0.2306,-0.2219,-0.2233,-0.2231,-0.2233,-0.2249,-0.2249,-0.2248,-0.2264,-0.2264,-0.2265,0,0,-0.2624,-0.2636,-0.2623,-0.2616,-0.2604,-0.2599,-0.2592,-0.2568,-0.2546,-0.2484,-0.2458,-0.2402,-0.2313,-0.2284,-0.2256,-0.2195,-0.2193,-0.217,-0.2164,-0.2179,-0.2179,-0.2179,-0.2127,-0.2123,-0.2174,-0.2174,-0.2174,0,-0.2629,-0.2618,-0.2616,-0.2603,-0.2595,-0.259,-0.2574,-0.2552,-0.2503,-0.2481,-0.2458,-0.2346,-0.2296,-0.2245,-0.2212,-0.2188,-0.2177,-0.2194,-0.2177,-0.2178,-0.2178,-0.2126,-0.2121,-0.2174,-0.2174,-0.2174,-0.2174,0,-0.2602,-0.2597,-0.2586,-0.2571,-0.2563,-0.2543,-0.2528,-0.2501,-0.2467,-0.2444,-0.2371,-0.2308,-0.2247,-0.2219,-0.2186,-0.2157,-0.2138,-0.2171,-0.2202,-0.2178,-0.2122,-0.2117,-0.2173,-0.2173,-0.2173,-0.2174,0,0,-0.2592,-0.2573,-0.2565,-0.2557,-0.2542,-0.2531,-0.2502,-0.2474,-0.2456,-0.2394,-0.2362,-0.226,-0.2234,-0.22,-0.2165,-0.2168,-0.2129,-0.2162,-0.2163,-0.2129,-0.2113,-0.1928,-0.1905,-0.2175,-0.2175,-0.2175,-0.2057,0,-0.2566,-0.254,-0.2534,-0.2506,-0.2494,-0.249,-0.2467,-0.2444,-0.2411,-0.2376,-0.2329,-0.2265,-0.2227,-0.2186,-0.2183,-0.2153,-0.2124,-0.2154,-0.2125,-0.2123,-0.198,-0.1897,-0.1808,-0.1682,-0.2052,-0.2052,-0.2051,0,-0.2527,-0.2519,-0.2488,-0.2478,-0.2472,-0.2448,-0.2425,-0.2401,-0.2374,-0.2348,-0.2308,-0.2271,-0.222,-0.2208,-0.2151,-0.2175,-0.2123,-0.2108,-0.2105,-0.1936,-0.1931,-0.1773,-0.166,-0.2044,-0.2044,-0.2045,-0.2045,0,-0.2499,-0.248,-0.2453,-0.2447,-0.2437,-0.2412,-0.2396,-0.2377,-0.2357,-0.232,-0.2306,-0.2263,-0.2214,-0.2195,-0.2095,-0.2136,-0.2039,-0.2106,-0.1884,-0.187,-0.1786,-0.1762,-0.2061,-0.2061,-0.2062,-0.2062,-0.2062,0,-0.2465,-0.244,-0.243,-0.2412,-0.2375,-0.2378,-0.2336,-0.2324,-0.2313,-0.2287,-0.2271,-0.2238,-0.2214,-0.2145,-0.2095,-0.1926,-0.2026,-0.1844,-0.1824,-0.1771,-0.1748,-0.2076,-0.208,-0.2058,-0.2059,-0.2059,-0.206,0,-0.2415,-0.2416,-0.2381,-0.2363,-0.2353,-0.2313,-0.2291,-0.2275,-0.227,-0.2244,-0.2225,-0.2203,-0.2095,-0.2027,-0.1958,-0.1876,-0.1777,-0.1689,-0.1573,-0.1538,-0.1605,-0.1609,-0.1464,-0.1457,-0.145,-0.1445,-0.144,0,-0.2379,-0.2355,-0.2328,-0.2301,-0.2275,-0.2236,-0.2219,-0.2229,-0.2224,-0.2208,-0.2195,-0.2089,-0.1958,-0.1748,-0.1619,-0.1443,-0.156,-0.1248,-0.1307,-0.1546,-0.1543,-0.1558,-0.157,-0.1189,-0.1183,-0.1178,-0.1174,0,-0.2293,-0.2278,-0.2246,-0.22,-0.2167,-0.215,-0.2126,-0.2121,-0.2135,-0.2075,-0.1976,-0.1862,-0.1684,-0.1452,-0.1218,-0.1119,-0.1276,-0.1133,-0.1437,-0.1333,-0.1271,-0.1273,-0.1298,-0.1128,-0.1133,-0.1136,-0.1139,-0.1141,-0.2199,-0.2151,-0.2103,-0.2053,-0.2041,-0.201,-0.1957,-0.1939,-0.1849,-0.174,-0.1751,-0.1538,-0.1461,-0.1045,-0.0912,-0.0804,-0.0898,-0.0871,-0.0895,-0.0922,-0.089,-0.0819,-0.0582,-0.0583,-0.0584,-0.0585,-0.0586,0,-0.2051,-0.2004,-0.1959,-0.1892,-0.186,-0.1881,-0.1859,-0.1759,-0.1587,-0.1519,-0.1361,-0.1081,-0.0895,-0.0842,-0.0625,-0.0507,-0.0575,-0.0463,-0.0629,-0.0669,-0.0707,-0.0675,-0.0304,-0.0303,-0.0303,-0.0302,0,0,-0.1955,-0.1856,-0.1837,-0.1715,-0.1682,-0.1578,-0.1538,-0.1364,-0.1275,-0.1006,-0.0893,-0.0903,-0.0851,-0.0646,-0.0526,-0.0422,-0.0553,-0.0358,-0.0579,-0.0821,-0.0859,-0.0916,-0.0904,0,0,0,0,0]},{"header":{"parameterUnit":"m.s-1","parameterCategory":2,"la1":30.2991,"la2":30.254,"lo1":-89.0895,"lo2":-89.0444,"dy":0.0017,"dx":0.0017,"nx":28,"ny":28,"refTime":"2024-07-01T03:00:00:Z","depth":"2","parameterNumber":3,"parameterNumberName":"V-component_of_CURRENTS"},"data":[0,0,0,0,0,0,0,0,0,0,0,0,0,0,0,0,0,0,0,0,0,0,0,0,0,0,0,0,0,0,0,0,0,0,0,0,0,0,0,0,0,0,0,0,0,0,0,0,0,0,0,0,0,0,0,0,0,0,0.0321,0.0323,0,0.0552,0.0555,0.0558,0.0686,0.0686,0.0685,0.0685,0.0822,0.0826,0.0829,0,0,0,0,0,0,0,0,0,0,0,0,0,0.0095,0.0099,0.032,0.0323,0.0325,0.0552,0.0556,0.0559,0.0686,0.0686,0.0685,0.0685,0.0821,0.0825,0.083,0,0,0,0,0,0,0,0,0,0,0,0,0,0.0251,0.01,0.032,0.0412,0.0422,0.0551,0.0556,0.056,0.0686,0.0686,0.0685,0.0685,0.0819,0.0825,0.083,0.0869,0,0,0.0847,0.085,0,0,0,0,0,0,0,0,0.0242,0.026,0.0396,0.0406,0.0417,0.0585,0.0526,0.0657,0.0686,0.0591,0.0685,0.0685,0.0731,0.0744,0.0796,0.0875,0.0881,0.0848,0.0851,0.0854,0.0855,0,0,0,0,0,0,0,0.0231,0.0251,0.0418,0.0399,0.0412,0.0478,0.05,0.0553,0.0661,0.0599,0.0608,0.0626,0.0737,0.0791,0.08,0.0883,0.0848,0.0853,0.0856,0.0858,0.1032,0.1033,0,0,0,0,0,0,0.0187,0.0241,0.041,0.0424,0.0322,0.0482,0.0506,0.0536,0.0663,0.0682,0.0625,0.0631,0.0781,0.0793,0.0805,0.0869,0.0854,0.0859,0.0862,0.1031,0.1032,0.1034,0,0,0,0,0,0,0.0182,0.0201,0.0401,0.0333,0.0362,0.0484,0.0518,0.054,0.06,0.0683,0.0701,0.0661,0.0782,0.0797,0.0862,0.0874,0.0862,0.0867,0.1029,0.1031,0.1033,0.0988,0,0,0,0,0,0,0.0175,0.0198,0.0222,0.033,0.0364,0.0476,0.0518,0.0545,0.0608,0.0617,0.0719,0.0732,0.0783,0.0854,0.0868,0.0881,0.0871,0.1028,0.103,0.1032,0.0988,0.0988,0.0989,0,0,0,0,0,0.0166,0.0198,0.0222,0.0243,0.0388,0.0476,0.0501,0.059,0.0609,0.0642,0.0709,0.0729,0.0878,0.0859,0.0876,0.0891,0.1027,0.1029,0.1032,0.0988,0.0988,0.0989,0,0,0,0,0,0,0.0127,0.0216,0.0245,0.0306,0.038,0.0496,0.0539,0.0587,0.0672,0.0677,0.0747,0.0766,0.0823,0.0868,0.0845,0.095,0.0955,0.0961,0.0916,0.0917,0.0917,0.0896,0.0876,0,0,0,0,0,0.0121,0.0162,0.0253,0.0302,0.0333,0.0432,0.0482,0.0536,0.0616,0.0655,0.0717,0.0787,0.085,0.0889,0.0946,0.1007,0.1007,0.1029,0.1029,0.1029,0.1025,0.1066,0.1069,0.1043,0.1043,0.1043,0,0,0.012,0.0173,0.02,0.0295,0.036,0.0413,0.0464,0.0534,0.058,0.0651,0.0727,0.0782,0.0863,0.0932,0.0962,0.0971,0.1024,0.1032,0.1031,0.1028,0.1069,0.1072,0.1074,0.1045,0.1044,0.1044,0,0,0.0122,0.018,0.0207,0.0263,0.0345,0.0407,0.0417,0.0521,0.0571,0.0645,0.0704,0.0769,0.0866,0.0936,0.0981,0.1018,0.1014,0.1032,0.1028,0.1068,0.107,0.1072,0.1009,0.1006,0.1043,0.1043,0.1043,0,0.0114,0.0166,0.0231,0.0267,0.0312,0.0393,0.043,0.0498,0.0608,0.0647,0.0656,0.0812,0.0872,0.0969,0.0984,0.1017,0.1002,0.1016,0.1065,0.1067,0.107,0.1007,0.1004,0.1041,0.1041,0.1041,0.1042,0,0.0129,0.0178,0.0198,0.0266,0.0322,0.037,0.0451,0.0507,0.0559,0.0626,0.0714,0.0803,0.0897,0.0927,0.0969,0.103,0.0994,0.1046,0.1054,0.1069,0.1001,0.0999,0.1039,0.1039,0.104,0.104,0,0,0.009,0.0188,0.0193,0.0226,0.0324,0.037,0.0436,0.0527,0.0573,0.066,0.0723,0.0835,0.0874,0.0928,0.0988,0.103,0.1015,0.104,0.1043,0.0956,0.1019,0.0994,0.0988,0.1075,0.1076,0.1077,0.0939,0,0.0082,0.0131,0.0192,0.0251,0.0288,0.0377,0.0432,0.052,0.0596,0.0672,0.0764,0.0842,0.0878,0.092,0.0967,0.1011,0.1017,0.1042,0.1037,0.1034,0.0996,0.099,0.1017,0.09,0.0936,0.0936,0.0936,0,0.0068,0.0108,0.0151,0.0246,0.0269,0.0311,0.0414,0.0479,0.0599,0.0655,0.0745,0.0816,0.0889,0.0923,0.0971,0.0979,0.0987,0.101,0.1007,0.1004,0.1009,0.0908,0.0894,0.0932,0.0932,0.0932,0.0933,0,-0.0006,0.0081,0.011,0.0142,0.0254,0.0288,0.0351,0.0466,0.0521,0.0641,0.0676,0.0784,0.0815,0.0874,0.0903,0.094,0.0921,0.0988,0.0956,0.095,0.0985,0.0981,0.1016,0.1016,0.1016,0.1017,0.1017,0,-0.0038,-0.001,0.0073,0.0092,0.0133,0.0228,0.0286,0.0368,0.0472,0.051,0.0648,0.0659,0.0809,0.0826,0.0868,0.0866,0.0885,0.0934,0.0933,0.0963,0.096,0.1022,0.1025,0.1011,0.1013,0.1014,0.1015,0,-0.0111,-0.0058,-0.0019,0.0072,0.01,0.0126,0.0233,0.0279,0.0372,0.042,0.0448,0.0551,0.0558,0.0662,0.0723,0.0793,0.0823,0.0817,0.0785,0.0787,0.082,0.0823,0.0779,0.0777,0.0776,0.0775,0.0774,0,-0.0138,-0.0132,-0.0061,-0.0042,-0.0,0.0055,0.0096,0.0213,0.0247,0.0315,0.0309,0.0353,0.0345,0.0408,0.0584,0.0655,0.0688,0.0719,0.0842,0.0802,0.0806,0.081,0.0814,0.0826,0.0825,0.0825,0.0825,0,-0.019,-0.0177,-0.0148,-0.0117,-0.0083,-0.0032,0.0019,0.0012,0.0112,0.0096,0.0034,0.0028,0.0169,0.03,0.0478,0.0534,0.073,0.0713,0.07,0.0897,0.0842,0.0847,0.085,0.0822,0.0822,0.0822,0.0822,0.0822,-0.0239,-0.0238,-0.0212,-0.0183,-0.0144,-0.0135,-0.014,-0.0144,-0.0182,-0.0178,-0.0175,-0.013,0.0071,0.0346,0.044,0.063,0.0661,0.0748,0.0751,0.0755,0.0801,0.075,0.0712,0.0712,0.0712,0.0711,0.0711,0,-0.0296,-0.0283,-0.0266,-0.0238,-0.0233,-0.0171,-0.0188,-0.0249,-0.0386,-0.0287,-0.0319,-0.016,0.0057,0.0275,0.0595,0.0723,0.0753,0.0716,0.077,0.0773,0.0776,0.0827,0.0743,0.0743,0.0742,0.0742,0,0,-0.0321,-0.0334,-0.0322,-0.033,-0.03,-0.0308,-0.0339,-0.0486,-0.0461,-0.0494,-0.0346,-0.0123,0.0132,0.0332,0.0497,0.0656,0.0669,0.0649,0.0624,0.0675,0.0676,0.0807,0.089,0,0,0,0,0]}],[{"header":{"parameterUnit":"m.s-1","parameterCategory":2,"la1":30.2991,"la2":30.254,"lo1":-89.0895,"lo2":-89.0444,"dy":0.0017,"dx":0.0017,"nx":28,"ny":28,"refTime":"2024-07-01T03:00:00:Z","depth":"4","parameterNumber":2,"parameterNumberName":"U-component_of_CURRENTS"},"data":[0,0,0,0,0,0,0,0,0,0,0,0,0,0,0,0,0,0,0,0,0,0,0,0,0,0,0,0,0,0,0,0,0,0,0,0,0,0,0,0,0,0,0,0,0,0,0,0,0,0,0,0,0,0,0,0,0,0,-0.0996,-0.0997,0,-0.1059,-0.106,-0.106,-0.1113,-0.1113,-0.1114,-0.1114,-0.1208,-0.121,-0.1212,0,0,0,0,0,0,0,0,0,0,0,0,0,-0.0934,-0.0935,-0.0996,-0.0997,-0.0998,-0.1059,-0.106,-0.106,-0.1113,-0.1113,-0.1114,-0.1115,-0.1208,-0.121,-0.1212,0,0,0,0,0,0,0,0,0,0,0,0,0,-0.0975,-0.0935,-0.0996,-0.1031,-0.1035,-0.1059,-0.106,-0.1061,-0.1112,-0.1113,-0.1114,-0.1115,-0.1207,-0.121,-0.1212,-0.1212,0,0,-0.1221,-0.1222,0,0,0,0,0,0,0,0,-0.0973,-0.0977,-0.1025,-0.1029,-0.1033,-0.1079,-0.1072,-0.1113,-0.1112,-0.1082,-0.1114,-0.1116,-0.1168,-0.1174,-0.1182,-0.1216,-0.122,-0.1221,-0.1223,-0.1224,-0.1225,0,0,0,0,0,0,0,-0.097,-0.0975,-0.102,-0.1026,-0.1031,-0.1049,-0.1056,-0.108,-0.1119,-0.1085,-0.1089,-0.1097,-0.117,-0.1179,-0.1185,-0.1221,-0.1221,-0.1224,-0.1226,-0.1227,-0.137,-0.1372,0,0,0,0,0,0,-0.0961,-0.0972,-0.1018,-0.1022,-0.1005,-0.1049,-0.1057,-0.1063,-0.1118,-0.1128,-0.1096,-0.1099,-0.1174,-0.1182,-0.1189,-0.127,-0.1224,-0.1227,-0.1229,-0.1368,-0.1371,-0.1373,0,0,0,0,0,0,-0.096,-0.0965,-0.1016,-0.0999,-0.1007,-0.1049,-0.1056,-0.1064,-0.109,-0.1127,-0.1136,-0.1116,-0.1175,-0.1184,-0.1236,-0.1271,-0.1228,-0.1231,-0.1366,-0.1369,-0.1372,-0.1382,0,0,0,0,0,0,-0.0958,-0.0964,-0.0969,-0.0998,-0.1008,-0.1042,-0.1056,-0.1065,-0.1093,-0.1098,-0.1147,-0.1155,-0.1176,-0.1232,-0.1239,-0.1274,-0.1233,-0.1363,-0.1367,-0.1371,-0.1379,-0.1385,-0.139,0,0,0,0,0,-0.0955,-0.0956,-0.0969,-0.0975,-0.1012,-0.1043,-0.1049,-0.1082,-0.1093,-0.1108,-0.1148,-0.1155,-0.1262,-0.1235,-0.1243,-0.128,-0.1361,-0.1366,-0.1371,-0.1376,-0.1384,-0.139,0,0,0,0,0,0,-0.0932,-0.0963,-0.0977,-0.0988,-0.102,-0.1052,-0.1066,-0.1087,-0.1127,-0.1137,-0.117,-0.1182,-0.1234,-0.1261,-0.123,-0.1337,-0.1318,-0.1324,-0.1319,-0.1326,-0.1332,-0.1311,-0.1236,0,0,0,0,0,-0.0928,-0.0939,-0.0974,-0.0984,-0.0998,-0.1033,-0.105,-0.1076,-0.1112,-0.1131,-0.1168,-0.1216,-0.1257,-0.1294,-0.1323,-0.1381,-0.1372,-0.1417,-0.1423,-0.1427,-0.1419,-0.1438,-0.1443,-0.1388,-0.1388,-0.1388,0,0,-0.0925,-0.094,-0.0949,-0.0981,-0.1005,-0.1029,-0.1046,-0.1077,-0.1105,-0.1134,-0.1186,-0.1222,-0.1271,-0.1332,-0.1362,-0.1365,-0.1438,-0.1433,-0.1436,-0.1425,-0.1443,-0.1448,-0.1452,-0.1392,-0.1391,-0.139,0,0,-0.0919,-0.0935,-0.0944,-0.097,-0.1008,-0.103,-0.1042,-0.1087,-0.1116,-0.1169,-0.1198,-0.1258,-0.1325,-0.1372,-0.1403,-0.146,-0.145,-0.1484,-0.1514,-0.1533,-0.1536,-0.1539,-0.1524,-0.1525,-0.1507,-0.1507,-0.1507,0,-0.0917,-0.0929,-0.0953,-0.097,-0.0992,-0.1031,-0.1053,-0.1085,-0.1146,-0.1169,-0.1191,-0.1293,-0.1343,-0.1412,-0.1451,-0.147,-0.1465,-0.1479,-0.1536,-0.1539,-0.1542,-0.1525,-0.1526,-0.1508,-0.1508,-0.1508,-0.1508,0,-0.0917,-0.0936,-0.0943,-0.0977,-0.1003,-0.1028,-0.1074,-0.1108,-0.1148,-0.1185,-0.1255,-0.1324,-0.139,-0.143,-0.1466,-0.1527,-0.1509,-0.1519,-0.1507,-0.1547,-0.1528,-0.1529,-0.151,-0.151,-0.1509,-0.1509,0,0,-0.0896,-0.0936,-0.0941,-0.0961,-0.101,-0.1032,-0.1073,-0.1121,-0.1141,-0.122,-0.1261,-0.1366,-0.1403,-0.1442,-0.1497,-0.1541,-0.1573,-0.1554,-0.1555,-0.1517,-0.1587,-0.1441,-0.1427,-0.1591,-0.1592,-0.1592,-0.156,0,-0.0894,-0.0917,-0.0942,-0.0979,-0.0997,-0.1043,-0.1072,-0.1121,-0.1166,-0.1215,-0.1299,-0.1357,-0.1408,-0.1455,-0.1506,-0.155,-0.1579,-0.1579,-0.1573,-0.1572,-0.1419,-0.1425,-0.1595,-0.1561,-0.1561,-0.1561,-0.1561,0,-0.0884,-0.0903,-0.093,-0.0976,-0.0989,-0.1018,-0.1063,-0.11,-0.1166,-0.1191,-0.1262,-0.1326,-0.142,-0.1454,-0.1531,-0.1527,-0.1561,-0.1588,-0.1588,-0.1444,-0.1427,-0.152,-0.1563,-0.1563,-0.1563,-0.1563,-0.1563,0,-0.0848,-0.0895,-0.0914,-0.0933,-0.0988,-0.1013,-0.1048,-0.1099,-0.1117,-0.1186,-0.12,-0.1302,-0.136,-0.142,-0.1502,-0.1522,-0.1553,-0.1583,-0.147,-0.1459,-0.1596,-0.1594,-0.1619,-0.1619,-0.1619,-0.1619,-0.1619,0,-0.0824,-0.0847,-0.0903,-0.0917,-0.094,-0.0995,-0.1018,-0.1046,-0.109,-0.1105,-0.1196,-0.1219,-0.1358,-0.1411,-0.1474,-0.1451,-0.1526,-0.1453,-0.1439,-0.1602,-0.1601,-0.1596,-0.1594,-0.1618,-0.1618,-0.1619,-0.1619,0,-0.0781,-0.0816,-0.0848,-0.0908,-0.0923,-0.0947,-0.0991,-0.1,-0.1032,-0.1054,-0.1081,-0.1166,-0.1209,-0.1303,-0.1393,-0.1386,-0.1402,-0.1379,-0.1513,-0.151,-0.1302,-0.1302,-0.1237,-0.1231,-0.1227,-0.1223,-0.122,0,-0.0758,-0.0767,-0.0829,-0.084,-0.087,-0.0906,-0.0916,-0.096,-0.0961,-0.101,-0.1012,-0.1078,-0.1133,-0.1119,-0.122,-0.1257,-0.1272,-0.1256,-0.1312,-0.1268,-0.1263,-0.1269,-0.1275,-0.1212,-0.1211,-0.121,-0.1208,0,-0.0717,-0.0746,-0.0772,-0.0784,-0.0806,-0.0817,-0.0844,-0.0831,-0.088,-0.0921,-0.0925,-0.0962,-0.0983,-0.1047,-0.1062,-0.1109,-0.1254,-0.1208,-0.122,-0.1272,-0.1238,-0.1238,-0.1249,-0.1192,-0.1195,-0.1196,-0.1197,0,-0.069,-0.0693,-0.0718,-0.0724,-0.0736,-0.072,-0.0751,-0.0758,-0.0766,-0.083,-0.0833,-0.0897,-0.0975,-0.0966,-0.0991,-0.0996,-0.101,-0.1013,-0.1036,-0.1054,-0.101,-0.0941,-0.0773,0,0,0,0,0,-0.0654,-0.0643,-0.0647,-0.0642,-0.0646,-0.0646,-0.0686,-0.072,-0.0775,-0.0753,-0.0788,-0.0811,-0.0829,-0.0863,-0.0837,-0.0903,-0.1009,-0.0866,-0.1023,-0.1102,-0.1121,-0.1087,0,0,0,0,0,0,-0.0627,-0.0632,-0.0626,-0.0559,-0.0532,-0.0524,-0.0549,-0.0599,-0.0591,-0.0665,-0.0686,-0.0739,-0.0776,-0.0827,-0.081,-0.0818,-0.0897,-0.0905,-0.0903,-0.1092,-0.1109,-0.1124,-0.1095,0,0,0,0,0]},{"header":{"parameterUnit":"m.s-1","parameterCategory":2,"la1":30.2991,"la2":30.254,"lo1":-89.0895,"lo2":-89.0444,"dy":0.0017,"dx":0.0017,"nx":28,"ny":28,"refTime":"2024-07-01T03:00:00:Z","depth":"4","parameterNumber":3,"parameterNumberName":"V-component_of_CURRENTS"},"data":[0,0,0,0,0,0,0,0,0,0,0,0,0,0,0,0,0,0,0,0,0,0,0,0,0,0,0,0,0,0,0,0,0,0,0,0,0,0,0,0,0,0,0,0,0,0,0,0,0,0,0,0,0,0,0,0,0,0,-0.0478,-0.0478,0,-0.0488,-0.0489,-0.0489,-0.0489,-0.0489,-0.0489,-0.0488,-0.0437,-0.0436,-0.0435,0,0,0,0,0,0,0,0,0,0,0,0,0,-0.0456,-0.0457,-0.0478,-0.0478,-0.0477,-0.0488,-0.0489,-0.0489,-0.049,-0.0489,-0.0489,-0.0488,-0.0437,-0.0436,-0.0435,0,0,0,0,0,0,0,0,0,0,0,0,0,-0.0468,-0.0457,-0.0478,-0.0477,-0.0477,-0.0488,-0.0489,-0.0489,-0.049,-0.0489,-0.0488,-0.0488,-0.0438,-0.0436,-0.0435,-0.0437,0,0,-0.043,-0.0429,0,0,0,0,0,0,0,0,-0.0468,-0.047,-0.0477,-0.0477,-0.0477,-0.0485,-0.0462,-0.0468,-0.049,-0.0488,-0.0488,-0.0488,-0.0446,-0.0444,-0.0452,-0.0434,-0.0432,-0.043,-0.0429,-0.0428,-0.0428,0,0,0,0,0,0,0,-0.0467,-0.0469,-0.0485,-0.0477,-0.0477,-0.0475,-0.0477,-0.0464,-0.0471,-0.0488,-0.0487,-0.0484,-0.0446,-0.0453,-0.045,-0.0431,-0.043,-0.0429,-0.0428,-0.0427,-0.0427,-0.0428,0,0,0,0,0,0,-0.0461,-0.0468,-0.0484,-0.0485,-0.0468,-0.0476,-0.0478,-0.0485,-0.0472,-0.0469,-0.0485,-0.0484,-0.0456,-0.0452,-0.0448,-0.0474,-0.0428,-0.0427,-0.0426,-0.0426,-0.0427,-0.0428,0,0,0,0,0,0,-0.0461,-0.0463,-0.0484,-0.0474,-0.0476,-0.0477,-0.0485,-0.0485,-0.0496,-0.047,-0.0466,-0.0495,-0.0455,-0.045,-0.0457,-0.0471,-0.0426,-0.0425,-0.0425,-0.0426,-0.0428,-0.0509,0,0,0,0,0,0,-0.046,-0.0463,-0.0473,-0.0474,-0.0476,-0.0493,-0.0485,-0.0486,-0.0494,-0.0493,-0.0477,-0.0472,-0.0455,-0.046,-0.0456,-0.0468,-0.0424,-0.0424,-0.0425,-0.0427,-0.0505,-0.0513,-0.052,0,0,0,0,0,-0.046,-0.0474,-0.0474,-0.0476,-0.0489,-0.0493,-0.0495,-0.0494,-0.0495,-0.0502,-0.0505,-0.0473,-0.0467,-0.046,-0.0455,-0.0466,-0.0423,-0.0425,-0.0427,-0.0502,-0.0511,-0.0519,0,0,0,0,0,0,-0.0468,-0.0475,-0.0475,-0.0491,-0.0492,-0.0492,-0.0501,-0.05,-0.051,-0.0513,-0.0491,-0.0487,-0.05,-0.0472,-0.0464,-0.0471,-0.0436,-0.0437,-0.0495,-0.0504,-0.0511,-0.052,-0.0422,0,0,0,0,0,-0.0475,-0.049,-0.0489,-0.0502,-0.0505,-0.0506,-0.051,-0.051,-0.0513,-0.0517,-0.0509,-0.05,-0.0504,-0.0495,-0.0492,-0.0493,-0.0443,-0.0494,-0.0502,-0.0508,-0.0512,-0.0498,-0.0504,-0.0435,-0.0435,-0.0435,0,0,-0.0483,-0.0486,-0.0496,-0.0505,-0.0509,-0.0524,-0.0508,-0.0518,-0.0535,-0.0509,-0.0534,-0.053,-0.0514,-0.0528,-0.0527,-0.0503,-0.0487,-0.0511,-0.0516,-0.0517,-0.0501,-0.0508,-0.0514,-0.0436,-0.0436,-0.0436,0,0,-0.0499,-0.0509,-0.0526,-0.0532,-0.0537,-0.054,-0.0544,-0.055,-0.0558,-0.0578,-0.0573,-0.059,-0.0572,-0.0582,-0.058,-0.0623,-0.0536,-0.06,-0.0635,-0.0622,-0.0628,-0.0632,-0.0516,-0.051,-0.0594,-0.0594,-0.0594,0,-0.0507,-0.0529,-0.053,-0.0547,-0.0559,-0.055,-0.0573,-0.0583,-0.0591,-0.0606,-0.0591,-0.0615,-0.0608,-0.0639,-0.0654,-0.0642,-0.0575,-0.0606,-0.0632,-0.0636,-0.064,-0.052,-0.0512,-0.0598,-0.0598,-0.0597,-0.0597,0,-0.0534,-0.0556,-0.0567,-0.059,-0.0605,-0.062,-0.0631,-0.0646,-0.0652,-0.0662,-0.0694,-0.0696,-0.0709,-0.0706,-0.0693,-0.0714,-0.0634,-0.0652,-0.0612,-0.0652,-0.0522,-0.0512,-0.0604,-0.0603,-0.0601,-0.06,0,0,-0.0538,-0.0579,-0.0583,-0.0606,-0.0631,-0.0644,-0.0678,-0.0708,-0.0734,-0.0743,-0.0779,-0.0802,-0.0799,-0.0797,-0.0784,-0.0768,-0.0724,-0.0713,-0.071,-0.0598,-0.0601,-0.0522,-0.0502,-0.0741,-0.0741,-0.0742,-0.0478,0,-0.0557,-0.0598,-0.0618,-0.0665,-0.0689,-0.0706,-0.0741,-0.0769,-0.0784,-0.0814,-0.0826,-0.0854,-0.0832,-0.084,-0.083,-0.0785,-0.0711,-0.0788,-0.0579,-0.057,-0.05,-0.0496,-0.0743,-0.047,-0.0468,-0.0466,-0.0465,0,-0.0576,-0.0601,-0.0651,-0.0708,-0.0723,-0.0754,-0.0807,-0.0839,-0.0878,-0.0889,-0.0915,-0.0916,-0.0928,-0.0895,-0.0801,-0.0844,-0.0713,-0.0646,-0.0635,-0.0534,-0.0478,-0.0436,-0.0446,-0.0448,-0.0449,-0.045,-0.0451,0,-0.0571,-0.0627,-0.0669,-0.0688,-0.0748,-0.0781,-0.0818,-0.0865,-0.0891,-0.0938,-0.0949,-0.0965,-0.0962,-0.0873,-0.0744,-0.0765,-0.0589,-0.0609,-0.0381,-0.0369,-0.0482,-0.0481,-0.0482,-0.0482,-0.0483,-0.0484,-0.0484,0,-0.0581,-0.0618,-0.0672,-0.0694,-0.0752,-0.0796,-0.0857,-0.089,-0.0933,-0.0962,-0.0989,-0.0985,-0.0958,-0.0863,-0.0735,-0.0523,-0.0574,-0.0369,-0.0317,-0.051,-0.0516,-0.0469,-0.0471,-0.0474,-0.0476,-0.0478,-0.0479,0,-0.0576,-0.061,-0.0664,-0.0729,-0.0752,-0.0798,-0.0871,-0.0907,-0.0945,-0.0977,-0.099,-0.099,-0.0879,-0.0772,-0.0605,-0.0492,-0.0316,-0.0193,-0.0331,-0.0293,-0.0084,-0.0093,0.0065,0.0069,0.0073,0.0076,0.0079,0,-0.0579,-0.0602,-0.0678,-0.0713,-0.0748,-0.0813,-0.0855,-0.0908,-0.0932,-0.0959,-0.096,-0.0884,-0.0854,-0.0543,-0.045,-0.017,-0.0125,0.0003,-0.0117,-0.0072,-0.0038,-0.0053,-0.0067,0.0085,0.0086,0.0087,0.0088,0,-0.0581,-0.0611,-0.0654,-0.0715,-0.0768,-0.0827,-0.0881,-0.0883,-0.0933,-0.0959,-0.0897,-0.0786,-0.0634,-0.0488,-0.0255,-0.0068,-0.0108,0.0043,0.0036,-0.0076,-0.0046,-0.0019,-0.0037,0.0101,0.0099,0.0098,0.0097,0,-0.0584,-0.0613,-0.0664,-0.072,-0.0786,-0.0829,-0.0857,-0.086,-0.0875,-0.088,-0.0845,-0.0732,-0.0685,-0.0422,-0.0223,-0.0041,-0.0005,0.0047,0.0039,0.0026,-0.0102,-0.0077,0.012,0,0,0,0,0,-0.058,-0.061,-0.0663,-0.0731,-0.0796,-0.0831,-0.0872,-0.089,-0.0906,-0.0841,-0.0838,-0.0691,-0.0438,-0.0359,-0.0153,-0.0156,0.002,0.0092,0.0073,0.0175,0.016,0.0016,0,0,0,0,0,0,-0.0583,-0.0629,-0.0655,-0.0727,-0.0772,-0.0839,-0.0863,-0.0874,-0.0825,-0.082,-0.0688,-0.0629,-0.039,-0.0559,-0.0153,-0.0103,-0.008,0.0197,0.0203,0.0184,0.017,0.0157,0.0005,0,0,0,0,0]}]]